AO-07 1 07530U 74089B 25210.61124402 -.00000047 00000-0 -65573-5 0 9997 2 07530 101.9947 215.4097 0012441 28.4580 85.7068 12.53690420320095 UO-11 1 14781U 84021B 25210.85205930 .00001417 00000-0 15445-3 0 9993 2 14781 97.7578 176.2394 0008172 159.7688 200.3855 14.89505857230123 AO-27 1 22825U 93061C 25210.42781046 .00000103 00000-0 56621-4 0 9998 2 22825 98.7338 272.2248 0007791 334.0374 26.0416 14.30812920660847 FO-29 1 24278U 96046B 25210.58447040 -.00000035 00000-0 13707-5 0 9992 2 24278 98.5685 97.8857 0349388 212.9096 144.9853 13.53250872429537 NOAA-15 1 25338U 98030A 25210.80520226 .00000194 00000-0 97203-4 0 9995 2 25338 98.5338 234.7237 0009695 206.1302 153.9391 14.27003846415567 GO-32 1 25397U 98043D 25210.49795696 .00000068 00000-0 49356-4 0 9990 2 25397 98.9737 190.6676 0002342 76.1059 284.0380 14.24325347405396 ISS 1 25544U 98067A 25210.95479819 .00012698 00000-0 22842-3 0 9999 2 25544 51.6359 95.0939 0002163 129.4454 325.3746 15.50209150521799 NO-44 1 26931U 01043C 25210.59262045 .00000148 00000-0 86348-4 0 9998 2 26931 67.0524 358.5279 0006442 276.6186 83.4183 14.31754826244264 SO-50 1 27607U 02058C 25210.49846124 .00001015 00000-0 14302-3 0 9995 2 27607 64.5529 46.4321 0061646 323.2461 36.4425 14.81744047216620 CO-55 1 27844U 03031E 25210.56716001 .00000309 00000-0 15338-3 0 9993 2 27844 98.6766 218.1970 0010536 47.7367 312.4704 14.24028506145751 CO-57 1 27848U 03031J 25210.53899849 .00000261 00000-0 13427-3 0 9990 2 27848 98.6794 218.1369 0010636 63.6272 296.5997 14.23358714145472 RS-22 1 27939U 03042A 25210.83121806 .00001129 00000-0 18626-3 0 9997 2 27939 98.3325 21.5102 0010840 205.1948 262.0033 14.72451492168229 CO-58 1 28895U 05043F 25210.37539110 .00001746 00000-0 29161-3 0 9993 2 28895 98.2562 355.3683 0015252 145.3934 214.8268 14.71152208 54262 CO-65 1 32785U 08021C 25210.88165779 .00005787 00000-0 41351-3 0 9991 2 32785 97.7875 182.4397 0010732 49.1152 311.1002 15.04835546936714 CO-66 1 32791U 08021J 25210.49848479 .00012928 00000-0 60791-3 0 9994 2 32791 97.7306 191.6948 0003798 30.1519 329.9933 15.19712984938072 RS-30 1 32953U 08025A 25210.86228551 .00000015 00000-0 37741-4 0 9996 2 32953 82.5020 195.9082 0018115 298.3311 61.5942 12.43166632779787 NOAA-19 1 33591U 09005A 25210.81966005 .00000197 00000-0 12897-3 0 9997 2 33591 98.9947 275.8001 0013169 218.2610 141.7629 14.13395875849201 SRMSAT 1 37841U 11058D 25210.38253495 .00000394 00000-0 70168-4 0 9999 2 37841 19.9704 213.1712 0011548 252.4076 248.4130 14.11447908712154 ZACUBE-1 1 39417U 13066B 25210.45501071 .00003311 00000-0 28761-3 0 9998 2 39417 97.7829 167.2253 0042175 244.6937 114.9913 14.97044480632378 Delfi-N3xt 1 39428U 13066N 25210.50304024 .00004833 00000-0 48885-3 0 9994 2 39428 97.8312 127.6087 0083464 194.9679 164.9067 14.88873546626505 GOMX-1 1 39430U 13066Q 25210.86682285 .00001828 00000-0 28806-3 0 9996 2 39430 97.6792 66.4361 0133057 32.0416 328.8792 14.67813241622783 LO-74 1 39440U 13066AA 25210.84013899 .00004665 00000-0 46938-3 0 9992 2 39440 97.8505 155.0652 0062071 15.7448 344.5681 14.90255498630125 AO-73 1 39444U 13066AE 25210.89050744 .00005775 00000-0 42745-3 0 9996 2 39444 97.7870 173.0239 0040422 213.3504 146.5174 15.02899092631732 DTUSAT-2 1 40030U 14033W 25210.57000200 .00005876 00000-0 37777-3 0 9992 2 40030 98.0584 184.8345 0007413 245.4113 114.6342 15.08811928603936 EO-80 1 40032U 14033Y 25210.45505494 .00006634 00000-0 42489-3 0 9995 2 40032 98.0472 184.2994 0008465 179.0817 181.0427 15.08886733603892 LILACSAT-2 1 40908U 15049K 25210.85636155 .00011782 00000-0 29783-3 0 9990 2 40908 97.5045 232.4466 0008139 352.1092 8.0024 15.39921409545969 IO-86 1 40931U 15052B 25151.18580175 .00001241 00000-0 78118-4 0 9996 2 40931 6.0006 24.0987 0012733 338.8432 21.1169 14.78805930523047 Horyu-4 1 41340U 16012D 25210.19522438 .00024353 00000-0 61160-3 0 9990 2 41340 30.9958 157.8207 0007249 224.0978 135.9091 15.38730800520439 Lapan A3 1 41603U 16040E 25210.85999479 .00003484 00000-0 12163-3 0 9990 2 41603 97.1384 213.5058 0012889 90.6469 269.6249 15.30153913505474 CAS-2T 1 41847U 16066G 25210.44966327 .00001081 00000-0 16176-3 0 9998 2 41847 98.4181 284.4718 0346131 27.8163 334.1069 14.43621561458215 CAS-4B 1 42759U 17034B 25210.83896029 .00090275 00000-0 71155-3 0 9992 2 42759 43.0057 20.9185 0023071 283.8730 75.9571 15.70071367450489 CAS-4A 1 42761U 17034D 25210.82401067 .00098061 00000-0 71415-3 0 9998 2 42761 43.0095 17.5124 0024132 288.4524 71.3722 15.71876144450519 TechnoSat 1 42829U 17042E 25210.74789626 .00004299 00000-0 33152-3 0 9999 2 42829 97.3924 17.0531 0017540 109.3251 250.9872 15.01978210438255 AO-91 1 43017U 17073E 25210.58855629 .00009481 00000-0 47821-3 0 9998 2 43017 97.5176 80.0976 0170384 356.6758 3.3321 15.05494923416730 S-Net D 1 43186U 18014G 25210.26520168 .00005167 00000-0 30248-3 0 9995 2 43186 97.5569 112.6649 0010533 60.7867 299.4415 15.12221042409883 S-Net B 1 43187U 18014H 25210.46976846 .00005288 00000-0 30959-3 0 9999 2 43187 97.5573 112.8415 0011105 55.5096 304.7182 15.12202507409914 S-Net A 1 43188U 18014J 25210.26542042 .00005190 00000-0 30376-3 0 9990 2 43188 97.5583 112.7958 0011033 57.0235 303.2055 15.12226441409881 S-Net C 1 43189U 18014K 25210.60464199 .00005299 00000-0 31016-3 0 9997 2 43189 97.5596 113.1544 0012338 48.4306 311.7980 15.12199915408485 Ten-Koh 1 43677U 18084G 25210.47115294 .00002415 00000-0 19534-3 0 9998 2 43677 98.0847 24.7008 0009070 98.9515 261.2735 15.00765627367729 PO-101 1 43678U 18084H 25210.80564789 .00001601 00000-0 13910-3 0 9991 2 43678 98.1068 28.8597 0008808 114.1493 246.0650 14.98519833367907 QO-100 1 43700U 18090A 25210.48302812 .00000143 00000-0 00000-0 0 9998 2 43700 0.0190 78.6700 0001091 48.7932 19.5655 1.00272250 24442 MinXSS-2 1 43758U 18099A 25210.80909694 .00015369 00000-0 58051-3 0 9995 2 43758 97.4984 277.0450 0010541 345.3559 14.7373 15.27044712364630 AO-95 1 43770U 18099N 25210.43009077 .00009562 00000-0 47281-3 0 9995 2 43770 97.4879 267.9798 0011315 46.4648 313.7523 15.17987048364117 RANGE-A 1 43773U 18099R 25210.58995046 .00004366 00000-0 27605-3 0 9999 2 43773 97.4450 257.5447 0011776 28.9937 331.1944 15.09474785363769 MOVE-II 1 43780U 18099Y 25194.80194206 .15913345 26116-5 37118-3 0 9995 2 43780 97.4526 273.8800 0018736 270.1080 89.8075 16.44566529363241 SNUSat 2 1 43782U 18099AA 25210.14583020 .00006541 00000-0 35119-3 0 9992 2 43782 97.4561 264.0420 0011186 350.3194 9.7821 15.15212402364001 SnugLite 1 43784U 18099AC 25210.11975403 .00008381 00000-0 41158-3 0 9995 2 43784 97.4371 263.6811 0002996 12.3184 347.8123 15.18314906364156 ITASat 1 1 43786U 18099AE 25210.40607853 .00006409 00000-0 36100-3 0 9990 2 43786 97.4530 263.6578 0015005 40.4182 319.8162 15.13459323363991 EAGLET 1 1 43790U 18099AJ 25210.54141486 .00004020 00000-0 25494-3 0 9996 2 43790 97.4731 263.5776 0012483 26.2507 333.9352 15.09407685363603 ESEO 1 43792U 18099AL 25210.07739294 .00002403 00000-0 18381-3 0 9996 2 43792 97.4439 255.7168 0012173 357.3398 2.7761 15.02763128363256 CSIM 1 43793U 18099AM 25210.76870728 .00371202 59200-4 79734-3 0 9996 2 43793 97.4691 293.1407 0007934 270.6476 89.3892 15.98466890365587 JO-97 1 43803U 18099AX 25210.44227798 .00012182 00000-0 53943-3 0 9999 2 43803 97.4621 269.0956 0006339 341.3809 18.7194 15.21775440364352 Suomi 100 1 43804U 18099AY 25210.14406333 .00008638 00000-0 41323-3 0 9991 2 43804 97.4691 267.9503 0011231 342.3366 17.7477 15.19167990364222 ISAT 1 43879U 18111D 25210.50467481 .00021752 00000-0 71473-3 0 9990 2 43879 97.5910 126.0478 0009184 37.1284 323.0590 15.31537520361339 UWE-4 1 43880U 18111E 25210.49095299 .00016227 00000-0 61071-3 0 9998 2 43880 97.5856 124.1500 0012812 44.3060 315.9202 15.27127816361247 Sparrow 1 43881U 18111F 25210.51014092 .00022637 00000-0 71339-3 0 9994 2 43881 97.6060 129.1309 0008719 72.7249 287.4946 15.32874458361439 Prox-1 1 44339U 19036A 25210.36404273 .00011802 00000-0 14622-2 0 9990 2 44339 23.9965 94.5698 0007424 279.5493 80.4165 14.80788433325400 SONATE 1 44400U 19038Q 25185.47540524 .09032085 27445-5 31847-3 0 9995 2 44400 97.6609 216.4776 0012462 246.7970 113.2018 16.43248376333575 Taurus 1 1 44530U 19059C 25210.88962469 .00006566 00000-0 11978-2 0 9993 2 44530 98.6125 352.7001 0008612 233.2460 126.7952 14.66327020311316 Duchifat 3 1 44854U 19089C 25210.85443736 .00051327 00000-0 86828-3 0 9995 2 44854 36.9418 34.6261 0006217 353.7711 6.2969 15.50536900310744 TO-108 1 44881U 19093C 25210.80474702 .00000949 00000-0 11544-3 0 9999 2 44881 97.7906 285.4019 0015116 69.2496 291.0337 14.85686397303530 FloripaSat 1 1 44885U 19093G 25210.82293560 .00004581 00000-0 38338-3 0 9992 2 44885 97.8156 298.5420 0011060 38.8050 321.3964 14.98916931304274 RS-44 1 44909U 19096E 25210.43345010 .00000006 00000-0 -23366-4 0 9992 2 44909 82.5207 194.1558 0217422 178.7097 181.4612 12.79742183261064 UPMSat 2 1 46276U 20061E 25210.46584165 .00102870 00000-0 66530-3 0 9994 2 46276 97.2393 286.7587 0001218 166.2367 193.8932 15.75771844273305 SALSAT 1 46495U 20068K 25210.54824361 .00007419 00000-0 31511-3 0 9992 2 46495 97.8640 190.9144 0010812 358.8691 1.2518 15.23335651266133 CubeSX-Sirius-HSE 1 47951U 21022V 25157.62701764 .07883385 25648-5 89537-3 0 9993 2 47951 97.4004 72.1904 0010275 223.9924 136.0557 16.36879307233400 CubeSX-HSE 1 47952U 21022W 25157.69972699 .06655353 25454-5 93288-3 0 9992 2 47952 97.3980 72.5414 0010307 219.3637 140.6911 16.34906352233436 GRBAlpha 1 47959U 21022AD 25160.45426279 .07940347 25506-5 90589-3 0 9995 2 47959 97.3899 75.6235 0011032 227.2558 132.7812 16.36806138232695 TUBIN 1 48900U 21059X 25210.80576606 .00045101 00000-0 46649-3 0 9999 2 48900 97.6774 24.2730 0003108 58.1103 302.0457 15.64613473227889 LEDSAT 1 49069U 21073D 25210.79045508 .00094767 00000-0 86360-3 0 9998 2 49069 97.3851 294.6601 0008546 239.9569 120.0845 15.67564767219283 CUTE 1 49263U 21088D 25210.20040901 .00015045 00000-0 27732-3 0 9998 2 49263 97.4480 287.9576 0007975 66.3909 293.8178 15.49206559212103 TeikyoSat 4 1 49396U 21102B 25210.65807611 .00002093 00000-0 14051-3 0 9999 2 49396 97.4076 247.2760 0011508 328.3830 31.6706 15.07817138204095 Z-Sat 1 49399U 21102E 25210.82931963 .00003505 00000-0 19191-3 0 9998 2 49399 97.3768 250.8527 0016242 291.5751 68.3750 15.14761657204581 KOSEN 1 1 49402U 21102H 25210.68406973 .00006494 00000-0 29653-3 0 9999 2 49402 97.3669 254.5115 0013978 262.0260 97.9390 15.20845248204901 HO-113 1 50466U 21131B 25210.83011126 .00000535 00000-0 18080-3 0 9994 2 50466 98.5105 299.9383 0003918 3.2659 356.8554 14.40862910188682 Foresail-1 1 52766U 22057AL 25176.64799660 .13857605 27391-5 25307-3 0 9992 2 52766 97.5832 331.2310 0012137 233.7199 258.4922 16.46795272172486 SNUGLITE 2 1 52899U 22065F 25210.88706343 .00001095 00000-0 22141-3 0 9995 2 52899 98.1753 352.3901 0006700 323.5080 36.5664 14.63309481163846 UmKA 1 (RS40S) 1 57172U 23091G 25210.85050950 .00005388 00000-0 28478-3 0 9995 2 57172 97.5543 265.9768 0015041 155.4625 204.7326 15.15815133115092 CubeBel-2 (EU11S) 1 57175U 23091K 25210.87577096 .00008613 00000-0 40121-3 0 9998 2 57175 97.5542 267.4646 0012726 160.5787 199.5935 15.20083023115198 VERONIKA 1 58261U 23174F 25210.84410128 .00453754 81399-4 13865-2 0 9994 2 58261 97.4021 300.6843 0008174 238.5920 121.4555 15.91871778 96619 ENSO 1 58470U 23185J 25210.85246790 .00065068 00000-0 76871-3 0 9991 2 58470 97.3691 287.7603 0006004 241.1790 118.8865 15.61088905 92863 EIRSAT-1 1 58472U 23185L 25210.77181796 .00224681 00000-0 11630-2 0 9997 2 58472 97.3622 290.6835 0006633 238.0745 121.9878 15.80425496 93054 SONATE-2 1 59112U 24043Q 25210.83823885 .00016615 00000-0 45807-3 0 9992 2 59112 97.5195 343.0904 0009555 296.8558 63.1709 15.37148886 78053 MO-122 1 60209U 24125G 25210.57923656 .00017407 00000-0 47095-3 0 9991 2 60209 97.2744 61.6762 0016730 321.6582 38.3473 15.37619919 59636 GRBBeta 1 60237U 24128C 25210.50581148 .00003124 00000-0 23928-3 0 9994 2 60237 61.9903 265.4350 0055172 68.1173 292.5772 15.02983036 57709 Curium One 1 60242U 24128H 25210.52235174 .00005346 00000-0 37008-3 0 9999 2 60242 61.9798 262.9055 0055208 64.3816 296.2966 15.05709132 57750 ROBUSTA-3A 1 60243U 24128J 25210.47430842 .00005358 00000-0 37613-3 0 9998 2 60243 61.9871 264.0714 0054185 62.0239 298.6322 15.05229157 57739 CatSat 1 60246U 24125J 25210.56713414 .00016015 00000-0 51889-3 0 9990 2 60246 97.2549 60.2941 0039888 276.0275 83.6422 15.31301140 57638 HYPERVIEW-1G (RS66S) 1 61772U 24199AP 25210.82781830 .00021867 00000-0 59877-3 0 9998 2 61772 97.3461 79.6230 0013236 21.4099 338.7696 15.37255119 84678 AO-123 1 61781U 24199AY 25210.85329234 .00006610 00000-0 23703-3 0 9995 2 61781 97.3480 77.9626 0016267 25.9983 334.2071 15.28925150 84562 ZIMSAT 2 1 61783U 24199BA 25210.88342082 .00039466 00000-0 86467-3 0 9997 2 61783 97.3429 80.7216 0012194 18.4986 341.6703 15.43920766 87909 HADES-R (SO-124) 1 62690U 25009CK 25210.49177160 .00039160 00000-0 12579-2 0 9999 2 62690 97.4070 291.2016 0001953 245.7743 114.3295 15.32177536 29784 HYDRA-T 1 62692U 25009CM 25210.46772091 .00042725 00000-0 13570-2 0 9995 2 62692 97.4074 291.2340 0001843 237.7589 122.3475 15.32520115 29781 JINJUSat 1B 1 63210U 25052A 25210.26277885 .00011946 00000-0 53260-3 0 9991 2 63210 97.4348 103.7713 0005599 132.0015 228.1698 15.21550360 20805 NUSHSAT 1 1 63211U 25052B 25210.44596282 .00013317 00000-0 58749-3 0 9998 2 63211 97.4336 103.9671 0005578 134.8614 225.3076 15.21884760 20836 TEVEL2-4 1 63213U 25052D 25210.20685305 .00011924 00000-0 53186-3 0 9991 2 63213 97.4253 103.5298 0004271 144.8042 215.3476 15.21539484 20790 TEVEL2-5 1 63214U 25052E 25210.60276447 .00011626 00000-0 51894-3 0 9992 2 63214 97.4251 103.9179 0004311 144.0786 216.0740 15.21520536 20850 TEVEL2-6 1 63215U 25052F 25210.60622733 .00011705 00000-0 52305-3 0 9992 2 63215 97.4253 103.9153 0004371 145.0893 215.0630 15.21481388 20859 TEVEL2-1 1 63217U 25052H 25210.69041280 .00011186 00000-0 50337-3 0 9991 2 63217 97.4231 103.9116 0004127 155.2817 204.8618 15.21252234 20863 TEVEL2-2 1 63218U 25052J 25210.69065565 .00011199 00000-0 50389-3 0 9995 2 63218 97.4230 103.9131 0004170 155.6965 204.4468 15.21255940 20862 TEVEL2-3 1 63219U 25052K 25210.23054493 .00011729 00000-0 52786-3 0 9996 2 63219 97.4232 103.4579 0004043 157.2683 202.8732 15.21237918 20793 TEVEL2-8 1 63237U 25052AD 25210.26994949 .00011311 00000-0 52765-3 0 9992 2 63237 97.4294 103.3666 0007631 187.5091 172.6031 15.19994185 20780 TEVEL2-9 1 63238U 25052AE 25210.20858600 .00010752 00000-0 50282-3 0 9990 2 63238 97.4294 103.2991 0007727 187.7032 172.4085 15.19920744 20770 TEVEL2-7 1 63239U 25052AF 25210.67247552 .00010461 00000-0 48961-3 0 9998 2 63239 97.4294 103.7473 0007756 186.3673 173.7464 15.19898327 20843 HYDRA-W 1 63490U 25052BL 25209.97751978 .00026524 00000-0 10485-2 0 9996 2 63490 97.4244 103.6644 0011220 186.2176 173.8924 15.25404193 20780 HADES-ICM (SO-125) 1 63492U 25052BN 25210.20519927 .00026965 00000-0 10835-2 0 9990 2 63492 97.4246 103.8286 0011378 190.1212 169.9798 15.24850984 20818